Cold Bay, AK

11:18 AM AKST on November 17, 2017 (GMT -0900)
Cold Bay

Weather History for PACD - September, 2013

Change the Weather History Date:

Tuesday, September 17, 2013

  Actual Average Record
Temperature  
Mean Temperature 51 °F 48 °F  
Max Temperature 54 °F 53 °F 59 °F (1954)
Min Temperature 47 °F 43 °F 32 °F (1966)
Degree Days  
Heating Degree Days 14 17  
Month to date heating degree days 241 262  
Since 1 July heating degree days 912 1101  
Cooling Degree Days 0 0  
Month to date cooling degree days 0 0  
Year to date cooling degree days 0 0  
Moisture  
Dew Point 45 °F    
Average Humidity 0    
Maximum Humidity 0    
Minimum Humidity 0    
Precipitation  
Precipitation 0.05 in 0.17 in 2.11 in (1985)
Month to date precipitation 2.64 2.61  
Year to date precipitation 30.59 25.35  
Snow  
Snow 0.00 in 0.00 in - ()
Month to date snowfall 0.0 0.0  
Since 1 July snowfall 0.0 0.0  
Since 1 September snowfall 0.0 0.0  
Snow Depth 0.00 in    
Sea Level Pressure  
Sea Level Pressure 29.86 in    
Wind  
Wind Speed 0 mph (NW)    
Max Wind Speed 25 mph    
Max Gust Speed 30 mph    
Visibility 10 miles    
Events Rain    
T = Trace of Precipitation, MM = Missing Value Source: NWS Daily Summary

Daily Weather History Graph

Daily Weather History Graph

Search for Another Location

Airport or City:

Trip Planner

Search our weather history database for the weather conditions in past years. The results will help you decide how hot, cold, wet, or windy it might be!

Date:

Astronomy

Sep. 17, 2013 Rise Set
Actual Time 8:27 AM AKDT 9:01 PM AKDT
Civil Twilight 7:51 AM AKDT 9:37 PM AKDT
Nautical Twilight 7:07 AM AKDT 10:21 PM AKDT
Astronomical Twilight 6:19 AM AKDT 11:08 PM AKDT
Moon 8:01 PM AKDT 6:24 AM AKDT
Length of Visible Light 13h 46m
Length of Day
12h 33m
Waxing Gibbous, 96% of the Moon is Illuminated
Sep 17
Waxing Gibbous
Sep 19
Full
Sep 26
Last Quarter
Oct 4
New
Oct 11
First Quarter

Hourly Weather History & Observations

Time (AKDT) Temp. Dew Point Humidity Pressure Visibility Wind Dir Wind Speed Gust Speed Precip Events Conditions
12:20 AM 48.2 °F 46.4 °F 93% 29.94 in 4.0 mi NW 5.8 mph - 0.06 in Rain Heavy Rain
12:29 AM 48.2 °F 46.4 °F 93% 29.93 in 10.0 mi NW 5.8 mph - 0.07 in Rain Light Rain
12:53 AM 48.9 °F 46.0 °F 90% 29.93 in 10.0 mi NW 4.6 mph - 0.07 in   Overcast
1:18 AM 48.2 °F 46.4 °F 93% 29.93 in 10.0 mi NNW 4.6 mph - N/A   Overcast
1:36 AM 48.2 °F 46.4 °F 93% 29.92 in 10.0 mi WNW 3.5 mph - N/A   Overcast
1:50 AM 48.2 °F 46.4 °F 93% 29.92 in 10.0 mi West 6.9 mph - N/A   Overcast
1:53 AM 48.9 °F 46.0 °F 90% 29.92 in 10.0 mi West 5.8 mph - N/A   Overcast
2:10 AM 48.2 °F 46.4 °F 93% 29.91 in 9.0 mi WNW 8.1 mph - 0.00 in Rain Light Rain
2:20 AM 48.2 °F 46.4 °F 93% 29.91 in 8.0 mi West 9.2 mph - 0.00 in Rain Light Rain
2:53 AM 48.9 °F 46.0 °F 90% 29.90 in 7.0 mi West 6.9 mph - 0.00 in Rain Light Rain
3:53 AM 48.9 °F 46.0 °F 90% 29.88 in 10.0 mi West 8.1 mph - 0.00 in   Overcast
4:13 AM 48.2 °F 46.4 °F 93% 29.88 in 9.0 mi WNW 6.9 mph - 0.00 in Rain Light Rain
4:53 AM 48.9 °F 46.0 °F 90% 29.87 in 10.0 mi WNW 9.2 mph - 0.00 in Rain Light Rain
5:28 AM 48.2 °F 46.4 °F 93% 29.86 in 8.0 mi WNW 11.5 mph - 0.00 in Rain Light Rain
5:53 AM 48.0 °F 45.0 °F 89% 29.85 in 7.0 mi WNW 9.2 mph - 0.01 in Rain Light Rain
6:53 AM 48.0 °F 45.0 °F 89% 29.84 in 10.0 mi WNW 6.9 mph - 0.02 in Rain Light Rain
7:34 AM 48.2 °F 44.6 °F 87% 29.83 in 10.0 mi West 8.1 mph - 0.00 in   Overcast
7:53 AM 48.0 °F 45.0 °F 89% 29.82 in 10.0 mi West 8.1 mph - 0.00 in Rain Light Rain
8:20 AM 48.2 °F 44.6 °F 87% 29.82 in 10.0 mi NW 9.2 mph - 0.00 in Rain Light Rain
8:53 AM 48.0 °F 45.0 °F 89% 29.82 in 10.0 mi NW 9.2 mph - 0.00 in   Mostly Cloudy
9:07 AM 48.2 °F 44.6 °F 87% 29.82 in 10.0 mi NW 9.2 mph - 0.00 in Rain Light Rain
9:32 AM 48.2 °F 44.6 °F 87% 29.82 in 10.0 mi NW 11.5 mph - 0.01 in Rain Light Rain
9:53 AM 48.9 °F 45.0 °F 86% 29.81 in 10.0 mi NW 11.5 mph - 0.01 in   Mostly Cloudy
10:53 AM 50.0 °F 46.0 °F 86% 29.81 in 10.0 mi NW 12.7 mph - 0.00 in   Overcast
11:04 AM 50.0 °F 46.4 °F 87% 29.81 in 10.0 mi NW 13.8 mph - N/A   Overcast
11:27 AM 51.8 °F 46.4 °F 82% 29.81 in 10.0 mi NNW 13.8 mph - N/A   Overcast
11:53 AM 51.1 °F 45.0 °F 80% 29.81 in 10.0 mi NNW 18.4 mph - N/A   Overcast
12:43 PM 51.8 °F 44.6 °F 76% 29.81 in 10.0 mi NW 18.4 mph 24.2 mph N/A   Mostly Cloudy
12:53 PM 53.1 °F 45.0 °F 74% 29.82 in 10.0 mi NW 17.3 mph 26.5 mph N/A   Mostly Cloudy
1:53 PM 50.0 °F 45.0 °F 83% 29.82 in 3.0 mi NNW 21.9 mph - 0.00 in Rain Light Rain
2:53 PM 52.0 °F 46.0 °F 80% 29.82 in 10.0 mi NNW 19.6 mph 28.8 mph 0.01 in   Overcast
3:53 PM 52.0 °F 45.0 °F 77% 29.82 in 10.0 mi NNW 19.6 mph 27.6 mph 0.00 in   Mostly Cloudy
4:00 PM 51.8 °F 44.6 °F 76% 29.82 in 10.0 mi NNW 24.2 mph 29.9 mph N/A   Mostly Cloudy
4:20 PM 53.6 °F 44.6 °F 72% 29.82 in 10.0 mi NNW 23.0 mph 28.8 mph N/A   Mostly Cloudy
4:53 PM 52.0 °F 43.0 °F 71% 29.83 in 10.0 mi NNW 23.0 mph - N/A   Overcast
5:53 PM 53.1 °F 44.1 °F 71% 29.85 in 10.0 mi NNW 25.3 mph 31.1 mph N/A   Overcast
6:23 PM 51.8 °F 42.8 °F 71% 29.85 in 10.0 mi NNW 18.4 mph 31.1 mph N/A   Mostly Cloudy
6:33 PM 53.6 °F 42.8 °F 67% 29.85 in 10.0 mi NNW 19.6 mph 29.9 mph N/A   Mostly Cloudy
6:53 PM 51.1 °F 42.1 °F 71% 29.85 in 10.0 mi NNW 20.7 mph 27.6 mph N/A   Mostly Cloudy
7:25 PM 51.8 °F 42.8 °F 71% 29.85 in 10.0 mi NNW 20.7 mph 28.8 mph N/A   Mostly Cloudy
7:53 PM 51.1 °F 42.1 °F 71% 29.86 in 10.0 mi NNW 23.0 mph 32.2 mph N/A   Mostly Cloudy
8:53 PM 50.0 °F 42.1 °F 74% 29.88 in 10.0 mi NW 20.7 mph 26.5 mph N/A   Mostly Cloudy
9:53 PM 50.0 °F 42.1 °F 74% 29.90 in 10.0 mi NW 18.4 mph - N/A   Mostly Cloudy
10:19 PM 50.0 °F 42.8 °F 76% 29.91 in 10.0 mi NNW 21.9 mph 28.8 mph N/A   Mostly Cloudy
10:53 PM 50.0 °F 42.1 °F 74% 29.92 in 10.0 mi NNW 20.7 mph - N/A   Mostly Cloudy
11:53 PM 50.0 °F 43.0 °F 77% 29.94 in 10.0 mi NNW 19.6 mph 25.3 mph N/A   Mostly Cloudy